User: anonymous   Login
Location: Bonn
(50.7330°N, 7.1000°E)
Time: 04:35:57
(UTC+02:00)
Language:

Iridium 84 - Orbit

View from above orbital plane
View from above orbital plane
View from above satellite
View from above satellite

Ground track
Ground track

The orbit data is extracted from the following two-line orbital elements,

1 25530U 98066D   16236.37285830  .00000136  00000-0  41623-4 0  9998
2 25530  86.3957 114.5088 0002223  83.4528 276.6921 14.34219121934312
Epoch (UTC): 23 August 2016 08:56:54
Eccentricity: 0.0002223
inclination: 86.3957°
perigee height: 776 km
apogee height: 779 km
right ascension of ascending node: 114.5088°
argument of perigee: 83.4528°
revolutions per day: 14.34219121
mean anomaly at epoch: 276.6921°
orbit number at epoch: 93431

The dashed part of the orbit path shows where the satellite is in the earth's shadow,  

DLR